User: anonymous   Login
Location: Castro Valley
(37.6940°N, 122.0850°W)
Time: 05:19:48
(UTC-08:00)
Language:

PANSAT - Orbit

View from above orbital plane
View from above orbital plane
View from above satellite
View from above satellite

Ground track
Ground track

The orbit data is extracted from the following two-line orbital elements,

1 25520U 98064B   17024.04194941  .00001014  00000-0  28036-4 0  9996
2 25520  28.4564 245.9820 0005235 203.5761 156.4594 15.28155730 12211
Epoch (UTC): 24 January 2017 01:00:24
Eccentricity: 0.0005235
inclination: 28.4564°
perigee height: 478 km
apogee height: 485 km
right ascension of ascending node: 245.9820°
argument of perigee: 203.5761°
revolutions per day: 15.28155730
mean anomaly at epoch: 156.4594°
orbit number at epoch: 1221

The dashed part of the orbit path shows where the satellite is in the earth's shadow,  

DLR